TimeEST,TemperatureF,Dew PointF,Humidity,Sea Level PressureIn,VisibilityMPH,Wind Direction,Wind SpeedMPH,Gust SpeedMPH,PrecipitationIn,Events,Conditions,WindDirDegrees,DateUTC
12:14 AM,32.4,29.3,88,29.53,10.0,Calm,Calm,-,N/A,,Clear,0,2012-01-12 05:14:00
12:34 AM,31.8,28.4,87,29.53,10.0,SE,4.6,-,N/A,,Clear,130,2012-01-12 05:34:00
12:54 AM,31.6,28.2,87,29.53,10.0,ESE,4.6,-,N/A,,Clear,120,2012-01-12 05:54:00
1:14 AM,32.0,28.9,88,29.52,10.0,ESE,4.6,-,N/A,,Clear,120,2012-01-12 06:14:00
1:34 AM,31.1,28.4,90,29.52,10.0,ESE,5.8,-,N/A,,Clear,120,2012-01-12 06:34:00
1:54 AM,30.9,28.8,92,29.51,10.0,Calm,Calm,-,N/A,,Clear,0,2012-01-12 06:54:00
2:15 AM,32.5,29.1,87,29.52,10.0,Calm,Calm,-,N/A,,Scattered Clouds,0,2012-01-12 07:15:00
2:34 AM,32.2,28.6,87,29.52,10.0,Calm,Calm,-,N/A,,Mostly Cloudy,0,2012-01-12 07:34:00
2:54 AM,29.8,28.0,93,29.52,7.0,Calm,Calm,-,N/A,,Scattered Clouds,0,2012-01-12 07:54:00
3:14 AM,29.1,27.3,93,29.52,7.0,WNW,3.5,-,N/A,,Clear,300,2012-01-12 08:14:00
3:34 AM,28.6,27.1,94,29.52,7.0,Calm,Calm,-,N/A,,Clear,0,2012-01-12 08:34:00
3:54 AM,29.5,28.0,94,29.51,7.0,Calm,Calm,-,N/A,,Clear,0,2012-01-12 08:54:00
4:14 AM,28.9,27.7,95,29.51,7.0,Calm,Calm,-,N/A,,Scattered Clouds,0,2012-01-12 09:14:00
4:34 AM,28.9,28.0,96,29.51,7.0,Calm,Calm,-,N/A,,Overcast,0,2012-01-12 09:34:00
4:54 AM,29.8,28.9,96,29.50,7.0,Calm,Calm,-,N/A,,Overcast,0,2012-01-12 09:54:00
5:14 AM,29.8,28.8,96,29.50,7.0,Calm,Calm,-,N/A,,Overcast,0,2012-01-12 10:14:00
5:34 AM,30.2,29.1,96,29.49,7.0,Calm,Calm,-,N/A,,Overcast,0,2012-01-12 10:34:00
5:54 AM,30.6,29.3,95,29.49,7.0,Calm,Calm,-,N/A,,Overcast,0,2012-01-12 10:54:00
6:14 AM,30.2,29.3,96,29.49,7.0,Calm,Calm,-,N/A,,Overcast,0,2012-01-12 11:14:00
6:34 AM,30.6,29.3,95,29.49,7.0,Calm,Calm,-,N/A,,Overcast,0,2012-01-12 11:34:00
7:14 AM,31.8,29.8,92,29.48,7.0,Calm,Calm,-,N/A,,Overcast,0,2012-01-12 12:14:00
7:34 AM,31.1,29.7,94,29.49,7.0,Calm,Calm,-,N/A,,Overcast,0,2012-01-12 12:34:00
7:54 AM,30.9,29.8,96,29.48,5.0,Calm,Calm,-,N/A,,Overcast,0,2012-01-12 12:54:00
8:14 AM,30.7,29.7,96,29.48,5.0,Calm,Calm,-,N/A,,Overcast,0,2012-01-12 13:14:00
8:34 AM,31.8,30.7,96,29.48,4.0,Calm,Calm,-,N/A,,Overcast,0,2012-01-12 13:34:00
8:54 AM,31.3,30.4,96,29.48,4.0,ENE,4.6,-,N/A,,Overcast,70,2012-01-12 13:54:00
9:14 AM,32.2,32.0,99,29.48,3.0,East,3.5,-,N/A,,Overcast,100,2012-01-12 14:14:00
9:34 AM,32.5,31.8,97,29.48,5.0,East,3.5,-,N/A,,Overcast,100,2012-01-12 14:34:00
9:54 AM,32.9,31.1,93,29.48,5.0,East,4.6,-,N/A,,Overcast,90,2012-01-12 14:54:00
10:15 AM,33.1,31.6,94,29.48,5.0,Calm,Calm,-,N/A,,Overcast,0,2012-01-12 15:15:00
10:34 AM,33.4,32.0,94,29.47,5.0,Calm,Calm,-,N/A,,Overcast,0,2012-01-12 15:34:00
10:54 AM,34.3,32.4,92,29.47,4.0,Calm,Calm,-,N/A,,Overcast,0,2012-01-12 15:54:00
11:14 AM,35.1,33.3,93,29.46,4.0,NE,6.9,-,N/A,,Overcast,40,2012-01-12 16:14:00
11:34 AM,35.4,34.0,94,29.45,3.0,NNE,8.1,-,N/A,,Overcast,20,2012-01-12 16:34:00
11:54 AM,35.2,34.0,95,29.45,2.5,North,4.6,-,N/A,,Overcast,10,2012-01-12 16:54:00
12:14 PM,35.6,34.7,97,29.43,2.0,North,8.1,-,N/A,,Overcast,10,2012-01-12 17:14:00
12:34 PM,35.4,34.5,97,29.42,2.5,North,10.4,-,N/A,,Overcast,10,2012-01-12 17:34:00
12:54 PM,35.1,34.3,97,29.42,1.8,North,12.7,-,N/A,,Overcast,10,2012-01-12 17:54:00
1:14 PM,34.7,34.2,98,29.41,1.2,NNE,9.2,-,N/A,,Overcast,20,2012-01-12 18:14:00
1:34 PM,34.7,34.0,97,29.40,1.8,ENE,9.2,-,N/A,,Overcast,60,2012-01-12 18:34:00
1:53 PM,34.9,34.3,98,29.39,4.0,NNE,6.9,-,N/A,,Overcast,20,2012-01-12 18:53:00
2:14 PM,34.5,34.0,98,29.39,3.0,NNE,8.1,-,N/A,,Overcast,30,2012-01-12 19:14:00
2:34 PM,33.8,33.3,98,29.39,4.0,NNE,6.9,-,N/A,,Overcast,30,2012-01-12 19:34:00
2:54 PM,33.8,32.9,96,29.39,7.0,NNE,10.4,-,N/A,,Overcast,30,2012-01-12 19:54:00
3:14 PM,33.4,32.2,95,29.39,5.0,NE,4.6,-,N/A,Rain,Light Rain,40,2012-01-12 20:14:00
3:34 PM,33.1,32.0,96,29.39,2.0,North,4.6,-,N/A,Snow,Light Snow,10,2012-01-12 20:34:00
3:54 PM,32.4,32.0,99,29.39,1.5,North,9.2,-,N/A,Snow,Light Snow,10,2012-01-12 20:54:00
4:14 PM,32.4,32.0,99,29.39,1.8,North,9.2,-,N/A,Snow,Light Snow,360,2012-01-12 21:14:00
4:35 PM,32.4,32.0,99,29.39,2.5,North,9.2,-,N/A,Snow,Light Snow,360,2012-01-12 21:35:00
4:54 PM,32.2,32.0,99,29.39,1.2,North,8.1,-,N/A,Snow,Light Snow,10,2012-01-12 21:54:00
5:14 PM,32.0,32.0,100,29.39,1.2,North,5.8,-,N/A,Snow,Light Snow,10,2012-01-12 22:14:00
5:34 PM,32.0,32.0,100,29.38,1.5,North,4.6,-,N/A,Snow,Light Snow,10,2012-01-12 22:34:00
6:15 PM,32.2,32.0,99,29.38,1.8,NNW,5.8,-,N/A,Snow,Light Snow,340,2012-01-12 23:15:00
6:34 PM,32.4,32.2,99,29.38,3.0,NNW,13.8,18.4,N/A,Snow,Light Snow,340,2012-01-12 23:34:00
6:54 PM,32.0,32.0,100,29.38,2.5,NNW,12.7,19.6,N/A,Snow,Light Snow,340,2012-01-12 23:54:00
7:14 PM,32.0,31.8,99,29.38,1.8,NNW,15.0,19.6,N/A,Snow,Light Snow,340,2012-01-13 00:14:00
7:34 PM,31.8,31.1,97,29.38,1.8,NNW,12.7,19.6,N/A,Snow,Light Snow,340,2012-01-13 00:34:00
7:54 PM,31.5,30.7,97,29.38,1.5,NNW,11.5,-,N/A,Snow,Light Snow,340,2012-01-13 00:54:00
8:14 PM,31.1,30.4,97,29.37,1.8,NNW,15.0,21.9,N/A,Snow,Light Snow,340,2012-01-13 01:14:00
8:34 PM,31.3,30.2,96,29.37,1.8,NNW,15.0,20.7,N/A,Snow,Light Snow,340,2012-01-13 01:34:00
8:54 PM,31.1,29.8,95,29.37,1.8,NNW,16.1,25.3,N/A,Snow,Light Snow,340,2012-01-13 01:54:00
9:14 PM,30.4,29.3,96,29.37,1.5,North,17.3,24.2,N/A,Snow,Light Snow,350,2012-01-13 02:14:00
9:34 PM,30.0,28.9,96,29.37,1.5,NNW,17.3,25.3,N/A,Snow,Light Snow,340,2012-01-13 02:34:00
9:54 PM,29.8,28.6,95,29.37,1.8,NNW,17.3,25.3,N/A,Snow,Light Snow,340,2012-01-13 02:54:00
10:14 PM,29.5,28.4,96,29.36,1.2,NNW,18.4,26.5,N/A,Snow,Light Snow,340,2012-01-13 03:14:00
10:34 PM,29.1,28.0,96,29.36,1.5,NNW,15.0,27.6,N/A,Snow,Light Snow,340,2012-01-13 03:34:00
10:54 PM,29.3,28.2,96,29.36,2.5,NNW,18.4,26.5,N/A,Snow,Light Snow,340,2012-01-13 03:54:00
11:14 PM,28.9,27.5,94,29.36,1.8,NNW,16.1,23.0,N/A,Snow,Light Snow,340,2012-01-13 04:14:00
11:34 PM,28.9,28.0,96,29.36,1.2,North,17.3,24.2,N/A,Snow,Light Snow,360,2012-01-13 04:34:00
11:54 PM,28.0,26.4,94,29.36,1.2,North,18.4,27.6,N/A,Snow,Light Snow,360,2012-01-13 04:54:00